Regional Weather Roundup
Issued by NWS Kansas City/Pleasant Hill, MO

Home | Current Version | Previous Version | Graphics & Text | Print | Product List | Glossary Off
Versions: 1 2 3 4 5 6 7 8 9 10 11 12 13 14 15 16 17 18 19 20 21 22 23 24 25 26 27 28 29 30 31 32 33 34 35 36 37 38 39 40 41 42 43 44 45 46 47 48 49 50

000
ASUS43 KEAX 260310
RWREAX

WEATHER ROUNDUP FOR EASTERN KANSAS AND NORTHWEST MISSOURI
NATIONAL WEATHER SERVICE KANSAS CITY/PLEASANT HILL MO
1000 PM CDT SAT OCT 25 2014

KSZ040-057-103>105-MOZ028-029-037-043-260400-
...KANSAS CITY METROPOLITAN AREA...

CITY           SKY/WX    TMP DP  RH WIND       PRES   REMARKS
K.C. INTL      CLEAR     68  50  52 E10       30.00F
K.C. DOWNTOWN  CLEAR     65  52  62 E7        29.99F
LEES SUMMIT    CLEAR     63  55  75 E7        30.01F
OLATHE - IXD   CLEAR     67  58  72 E7        30.00F
OLATHE - OJC   CLEAR     68  59  73 E7        30.00S
LAWRENCE       CLEAR     63  56  78 SE7       29.99S

$$

MOZ001>008-011>017-020>025-030>033-038>040-044>046-053-054-260400-
...NORTHERN AND CENTRAL MISSOURI...

CITY           SKY/WX    TMP DP  RH WIND       PRES   REMARKS
ST. JOSEPH     CLEAR     59  47  64 E5        30.00F
MOSBY          CLEAR     55  54  94 CALM      30.01F
WHITEMAN AFB   CLEAR     61  55  81 E3        30.02R
CLINTON        CLEAR     59  57  94 CALM      30.02S FOG
SEDALIA        CLEAR     66  55  67 E5        30.04R
WARSAW         NOT AVBL
MARSHALL       CLEAR     66  52  59 E5        30.03F
CHILLICOTHE      N/A     59  47  64 CALM      30.05R
MOBERLY        CLEAR     59  46  63 CALM      30.06R HAZE
KIRKSVILLE     CLEAR     57  45  64 NE6       30.06R

$$

MOZ041-047>049-056>058-063>065-088>090-097-260400-
...EASTERN AND SOUTHERN MISSOURI...

CITY           SKY/WX    TMP DP  RH WIND       PRES   REMARKS
ST. LOUIS INTL CLEAR     63  54  72 CALM      30.03R
SPIRIT OF STL  CLEAR     55  53  93 CALM      30.02R
COLUMBIA       CLEAR     64  52  64 NE6       30.04R
JEFFERSON CITY CLEAR     62  56  80 CALM      30.02R
MEXICO         CLEAR     59  54  82 CALM      30.04S
HANNIBAL       CLEAR     64  41  42 N3        30.05S
ROLLA          CLEAR     59  53  80 E3        30.02S
LEBANON        CLEAR     63  57  82 CALM      30.04S
OSAGE BEACH    CLEAR     61  57  88 CALM      30.02S
SPRINGFIELD    CLEAR     62  58  86 S3        30.03S
BRANSON        CLEAR     66  61  82 CALM      30.06S
NEVADA         CLEAR     63  61  94 S6        30.01S
JOPLIN         CLEAR     65  63  93 SE5       30.02S
WEST PLAINS    CLEAR     62  58  86 CALM      30.05S

$$

IAZ060-094-KSZ022-034>040-054-083-096-NEZ052-066-093-260400-
...KANSAS...SOUTHEAST NEBRASKA AND IOWA...

CITY           SKY/WX    TMP DP  RH WIND       PRES   REMARKS
TOPEKA         CLEAR     65  59  81 E3        29.98S
MANHATTAN      CLEAR     68  59  73 E6        29.95S
EMPORIA        CLEAR     65  61  87 SE8       29.97S
CHANUTE        CLEAR     66  63  90 SE7       29.99F
WICHITA        CLEAR     71  60  68 S10       29.95F
OMAHA          CLEAR     59  41  51 CALM      30.04S
LINCOLN        CLEAR     58  45  62 E9        30.02S
FALLS CITY     CLEAR     60  47  61 E5        30.00R
LAMONI         CLEAR     59  42  53 NE5       30.06R
DES MOINES     CLEAR     58  38  47 NE3       30.07R

$$




USA.gov is the U.S. government's official web portal to all federal, state and local government web resources and services.